When you browse on this site, cookies collect data to enhance your experience and personalize the content and advertising you see.
Visit our Privacy Policy to learn more. By continuing to use the site, you agree to this use of cookies and data.
  • In Austria
  • List of Countries
  • For 7 days
  • Water Temperature
  • Weather Map
  • News
  • Weather Widgets
  • user-avatar
    Login

    Hourly Weather Baleyka

    Today, 2 June, Tuesday

    Time Temperature Precipitation Wind Pressure Humidity
    00:00 +15°C° 0 mm 0 mps 748 mmHg 76%
    01:00 +15°C° 0 mm 0 mps 748 mmHg 78%
    02:00 +14°C° 0 mm 0 mps 748 mmHg 79%
    03:00 +14°C° 0 mm 0 mps 748 mmHg 80%
    04:00 +14°C° 0 mm 0 mps 749 mmHg 79%
    05:00 +15°C° 0 mm 0 mps 749 mmHg 75%
    06:00 +19°C° 0 mm 1 mps 749 mmHg 72%
    07:00 +20°C° 0 mm 1 mps 749 mmHg 68%
    08:00 +21°C° 0 mm 1 mps 749 mmHg 63%
    09:00 +21°C° 0 mm 2 mps 749 mmHg 58%
    10:00 +23°C° 0 mm 2 mps 749 mmHg 52%
    11:00 +24°C° 0 mm 1 mps 749 mmHg 49%
    12:00 +25°C° 0 mm 1 mps 749 mmHg 45%
    13:00 +23°C° 0 mm 0 mps 749 mmHg 41%
    14:00 +25°C° 0 mm 2 mps 749 mmHg 46%
    15:00 +24°C° 0 mm 3 mps 749 mmHg 52%
    16:00 +23°C° 0 mm 4 mps 749 mmHg 57%
    17:00 +22°C° 0 mm 4 mps 749 mmHg 62%
    18:00 +21°C° 0 mm 4 mps 749 mmHg 66%
    19:00 +21°C° 0 mm 4 mps 749 mmHg 71%
    20:00 +19°C° 0 mm 4 mps 749 mmHg 74%
    21:00 +17°C° 0 mm 5 mps 749 mmHg 77%
    22:00 +16°C° 0 mm 5 mps 749 mmHg 80%
    23:00 +15°C° 0 mm 4 mps 749 mmHg 79%

    Tomorrow, 3 June, Wednesday

    Time Temperature Precipitation Wind Pressure Humidity
    00:00 +15°C° 0 mm 4 mps 748 mmHg 78%
    01:00 +15°C° 0 mm 4 mps 748 mmHg 78%
    02:00 +14°C° 0 mm 4 mps 748 mmHg 78%
    03:00 +14°C° 0 mm 4 mps 748 mmHg 79%
    04:00 +14°C° 0 mm 4 mps 749 mmHg 79%
    05:00 +15°C° 0 mm 4 mps 748 mmHg 78%
    06:00 +17°C° 0 mm 4 mps 748 mmHg 76%
    07:00 +17°C° 0 mm 5 mps 748 mmHg 75%
    08:00 +20°C° 0 mm 4 mps 748 mmHg 69%
    09:00 +22°C° 0 mm 4 mps 748 mmHg 64%
    10:00 +25°C° 0 mm 4 mps 749 mmHg 59%
    11:00 +26°C° 0 mm 4 mps 748 mmHg 54%
    12:00 +27°C° 0 mm 4 mps 748 mmHg 49%
    13:00 +28°C° 0 mm 4 mps 748 mmHg 44%
    14:00 +28°C° 0 mm 4 mps 748 mmHg 44%
    15:00 +28°C° 0 mm 4 mps 748 mmHg 44%
    16:00 +28°C° 0 mm 4 mps 748 mmHg 44%
    17:00 +27°C° 0 mm 5 mps 748 mmHg 50%
    18:00 +26°C° 0 mm 5 mps 748 mmHg 57%
    19:00 +25°C° 0 mm 5 mps 747 mmHg 63%
    20:00 +22°C° 0 mm 5 mps 748 mmHg 67%
    21:00 +21°C° 0 mm 6 mps 748 mmHg 70%
    22:00 +19°C° 0 mm 6 mps 748 mmHg 74%
    23:00 +19°C° 0 mm 6 mps 747 mmHg 74%

    Day after tomorrow, 4 June, Thursday

    Time Temperature Precipitation Wind Pressure Humidity
    00:00 +17°C° 0 mm 5 mps 747 mmHg 73%
    01:00 +17°C° 0 mm 5 mps 747 mmHg 72%
    02:00 +17°C° 0 mm 5 mps 747 mmHg 72%
    03:00 +17°C° 0 mm 6 mps 747 mmHg 72%
    04:00 +17°C° 0 mm 6 mps 746 mmHg 73%
    05:00 +17°C° 0 mm 6 mps 747 mmHg 72%
    06:00 +17°C° 0 mm 7 mps 747 mmHg 71%
    07:00 +18°C° 0 mm 7 mps 747 mmHg 70%
    08:00 +18°C° 0 mm 7 mps 747 mmHg 69%
    09:00 +20°C° 0 mm 7 mps 747 mmHg 67%
    10:00 +20°C° 0 mm 7 mps 748 mmHg 65%
    11:00 +21°C° 0 mm 7 mps 747 mmHg 65%
    12:00 +21°C° 0 mm 7 mps 747 mmHg 64%
    13:00 +22°C° 0 mm 7 mps 747 mmHg 64%
    14:00 +22°C° 0 mm 6 mps 747 mmHg 65%
    15:00 +22°C° 0 mm 6 mps 748 mmHg 66%
    16:00 +22°C° 0 mm 5 mps 748 mmHg 67%
    17:00 +21°C° 0 mm 6 mps 748 mmHg 68%
    18:00 +21°C° 0 mm 6 mps 748 mmHg 68%
    19:00 +20°C° 0 mm 6 mps 748 mmHg 68%
    20:00 +20°C° 0 mm 7 mps 748 mmHg 64%
    21:00 +20°C° 0 mm 7 mps 748 mmHg 60%
    22:00 +18°C° 0 mm 8 mps 748 mmHg 57%
    23:00 +18°C° 0 mm 7 mps 748 mmHg 55%

    5 June, Friday

    Time Temperature Precipitation Wind Pressure Humidity
    00:00 +18°C° 0 mm 7 mps 748 mmHg 53%
    01:00 +18°C° 0 mm 7 mps 748 mmHg 51%
    02:00 +17°C° 0 mm 7 mps 749 mmHg 51%
    03:00 +17°C° 0 mm 7 mps 749 mmHg 52%
    04:00 +17°C° 0 mm 7 mps 749 mmHg 53%
    05:00 +16°C° 0 mm 8 mps 749 mmHg 57%
    06:00 +16°C° 0 mm 8 mps 749 mmHg 61%
    07:00 +16°C° 0 mm 8 mps 749 mmHg 65%
    08:00 +16°C° 0 mm 9 mps 750 mmHg 64%
    09:00 +17°C° 0 mm 9 mps 750 mmHg 62%
    10:00 +18°C° 0 mm 9 mps 750 mmHg 60%
    11:00 +18°C° 0 mm 9 mps 750 mmHg 60%
    12:00 +18°C° 0 mm 8 mps 750 mmHg 59%
    13:00 +20°C° 0 mm 8 mps 750 mmHg 59%
    14:00 +20°C° 0.2 mm 7 mps 750 mmHg 61%
    15:00 +20°C° 0.2 mm 7 mps 750 mmHg 62%
    16:00 +20°C° 0.2 mm 6 mps 750 mmHg 64%
    17:00 +19°C° 0.1 mm 6 mps 750 mmHg 66%
    18:00 +17°C° 0.1 mm 6 mps 750 mmHg 68%
    19:00 +17°C° 0.1 mm 5 mps 750 mmHg 71%
    20:00 +16°C° 0 mm 6 mps 750 mmHg 70%
    21:00 +15°C° 0 mm 6 mps 750 mmHg 70%
    22:00 +15°C° 0 mm 7 mps 751 mmHg 69%
    23:00 +14°C° 0 mm 7 mps 751 mmHg 69%

    6 June, Saturday

    Time Temperature Precipitation Wind Pressure Humidity
    00:00 +14°C° 0 mm 6 mps 751 mmHg 68%
    01:00 +14°C° 0 mm 6 mps 751 mmHg 68%
    02:00 +13°C° 0 mm 5 mps 751 mmHg 67%
    03:00 +13°C° 0 mm 5 mps 751 mmHg 66%
    04:00 +13°C° 0 mm 4 mps 751 mmHg 65%
    05:00 +13°C° 0 mm 4 mps 751 mmHg 65%
    06:00 +13°C° 0 mm 5 mps 751 mmHg 64%
    07:00 +14°C° 0 mm 5 mps 751 mmHg 64%
    08:00 +14°C° 0 mm 5 mps 751 mmHg 64%
    09:00 +14°C° 0 mm 5 mps 751 mmHg 64%
    10:00 +14°C° 0 mm 5 mps 752 mmHg 63%
    11:00 +14°C° 0.1 mm 5 mps 752 mmHg 66%
    12:00 +14°C° 0.1 mm 5 mps 752 mmHg 68%
    13:00 +14°C° 0.1 mm 6 mps 752 mmHg 71%
    14:00 +14°C° 0 mm 6 mps 752 mmHg 72%
    15:00 +14°C° 0 mm 6 mps 752 mmHg 73%
    16:00 +14°C° 0 mm 6 mps 752 mmHg 74%
    17:00 +14°C° 0 mm 5 mps 752 mmHg 74%
    18:00 +14°C° 0 mm 4 mps 752 mmHg 73%
    19:00 +14°C° 0 mm 4 mps 752 mmHg 73%
    20:00 +14°C° 0 mm 4 mps 752 mmHg 70%
    21:00 +14°C° 0 mm 4 mps 753 mmHg 67%
    22:00 +14°C° 0 mm 4 mps 753 mmHg 64%
    23:00 +14°C° 0 mm 4 mps 753 mmHg 65%

    7 June, Sunday

    Time Temperature Precipitation Wind Pressure Humidity
    00:00 +14°C° 0 mm 4 mps 753 mmHg 65%
    01:00 +14°C° 0 mm 4 mps 753 mmHg 66%
    02:00 +13°C° 0 mm 4 mps 753 mmHg 69%
    03:00 +12°C° 0 mm 4 mps 753 mmHg 72%
    04:00 +12°C° 0 mm 4 mps 753 mmHg 75%
    05:00 +12°C° 0 mm 4 mps 754 mmHg 71%
    06:00 +13°C° 0 mm 4 mps 754 mmHg 68%
    07:00 +14°C° 0 mm 4 mps 754 mmHg 64%
    08:00 +17°C° 0 mm 4 mps 754 mmHg 59%
    09:00 +19°C° 0 mm 4 mps 754 mmHg 53%
    10:00 +22°C° 0 mm 4 mps 754 mmHg 47%
    11:00 +22°C° 0 mm 5 mps 754 mmHg 44%
    12:00 +23°C° 0 mm 5 mps 754 mmHg 41%
    13:00 +25°C° 0 mm 5 mps 754 mmHg 38%
    14:00 +25°C° 0 mm 5 mps 754 mmHg 40%
    15:00 +25°C° 0 mm 4 mps 754 mmHg 43%
    16:00 +25°C° 0 mm 4 mps 754 mmHg 45%
    17:00 +22°C° 0 mm 4 mps 754 mmHg 48%
    18:00 +21°C° 0 mm 3 mps 754 mmHg 50%
    19:00 +19°C° 0 mm 3 mps 754 mmHg 53%
    20:00 +18°C° 0 mm 3 mps 754 mmHg 57%
    21:00 +17°C° 0 mm 3 mps 754 mmHg 61%
    22:00 +16°C° 0 mm 3 mps 755 mmHg 65%
    23:00 +16°C° 0 mm 3 mps 755 mmHg 64%
    Show more